Home > Weather > Oviedo > Past weeks

Flag for Spain Past Weather in Oviedo, Spain — Yesterday and Last 2 Weeks

Now
66 °F

Mild.


Feels Like: 66 °F
Forecast: 58 / 73 °F
Wind: 5 mph from Southeast

Location: Oviedo

Current Time: Aug 27, 2016 at 5:16:52 AM

Latest Report: Aug 27, 2016 at 4:00 AM


Visibility: 0 mi

Pressure: 29.98 "Hg

Humidity: 100%

Dew Point: 66 °F

Location of OviedoLocation

Past Weather in Oviedo — Graph

°F

Oviedo Temperature Yesterday

Maximum temperature yesterday: 72 °F (at 5:00 PM)
Minimum temperature yesterday: 65 °F (at 9:00 AM)
Average temperature yesterday: 68 °F

High & Low Weather Summary for the Past Weeks

 TemperatureHumidityPressure
High93 °F (Aug 22, 6:00 PM)100% (Aug 16, 8:00 AM)30.32 "Hg (Aug 16, 8:00 AM)
Low54 °F (Aug 12, 7:00 AM)29% (Aug 22, 6:00 PM)29.81 "Hg (Aug 19, 6:00 AM)
Average68 °F81%30.07 "Hg
* Reported Aug 12 3:00 AM — Aug 27 3:00 AM, Oviedo, Weather by CustomWeather, © 2016

Note: Actual official high and low records may vary slightly from our data, if they occured in-between our weather recording intervals... More about our weather records

Advertising

Oviedo Weather History for the Previous 24 Hours

Scroll right to see more
 ConditionsComfort  
Time TempWeatherWind HumidityBarometerVisibility
3:00 AM
Sat, Aug 27
66 °FMild.1 mph100%29.98 "Hg0 mi
2:00 AM68 °FOvercast.1 mph97%30.00 "Hg4 mi
1:00 AM68 °FMild.1 mph98%30.00 "Hg4 mi
12:00 AM68 °FMild.2 mph98%30.01 "HgN/A
11:00 PM
Fri, Aug 26
68 °FOvercast.1 mph97%30.02 "Hg6 mi
10:00 PM69 °FMild.2 mph95%30.01 "Hg8 mi
9:00 PM69 °FMild.3 mph94%29.99 "Hg12 mi
8:00 PM69 °FOvercast.5 mph93%30.00 "Hg12 mi
6:00 PM71 °FMild.3 mph86%30.00 "Hg9 mi
5:00 PM72 °FOvercast.3 mph88%30.00 "Hg7 mi
4:00 PM69 °FMild.6 mph94%30.02 "Hg6 mi
3:00 PM68 °FMild.3 mph96%30.03 "Hg4 mi
2:00 PM68 °FRain. Overcast.3 mph98%30.02 "Hg2 mi
1:00 PM70 °FMild.3 mph92%30.03 "Hg11 mi
12:00 PM69 °FMild.5 mph96%30.02 "Hg8 mi
11:00 AM67 °FFog.3 mph100%30.02 "Hg5 mi
10:00 AM66 °FMild.7 mph100%30.05 "HgN/A
9:00 AM65 °FRain. Cloudy.10 mph100%30.03 "Hg0 mi
8:00 AM66 °FFog.2 mph100%30.09 "Hg0 mi
7:00 AM66 °FMild.3 mph100%30.03 "Hg2 mi
6:00 AM65 °FMild.6 mph100%30.03 "Hg0 mi
5:00 AM66 °FFog.5 mph100%30.04 "Hg1 mi
Weather by CustomWeather, © 2016

See weather overviewHow to use our weather pages